Spokane, WA
on Saturday, November 17, 2012

Saturday
Previous Day Next Day
Daily Summary
 ActualAverageRecord
Temperature
Mean Temperature °F 35°F  
Max Temperature 50°F 41°F 60°F (1908)
Min Temperature 35°F 30°F 8°F (2000)
Degree Days
Heating Degree Days 22 30  
Month to date heating degree days 427 456  
Since 1 July heating degree days 1033 1244  
Cooling Degree Days 0 0  
Month to date cooling degree days 0 0  
Year to date cooling degree days 535 450  
Moisture
Dew Point 39°F   
Average Humidity 88    
Maximum Humidity 100    
Minimum Humidity 76    
Precipitation
Precipitation 0.17 in 0.08 in 0.94 in (1946)
Month to date precipitation 1.32 1.23  
Year to date precipitation 16.82 13.19  
Snow
Snow 0.00 in 0.30 in 4.80 in (1959)
Month to date snowfall 5.9 2.8  
Since 1 July snowfall 5.9 2.9  
Since 1 September snowfall 5.9 2.9  
Snow Depth 0.00 in   
Wind
Wind Speed 9 mph   
Max Wind Speed 26 mph   
Max Gust Speed 33 mph   
Visibility 8 miles   
Events Rain   

Key: T is trace of precipitation, MM is missing value
Source: NWS Daily Summary
Time(PST)TemperatureDew PointHumidity Pressure Visibility Wind DirectionWind SpeedGust SpeedPrecipitationEvents Conditions
12:53 AM 36.0°F 35.1°F 97% 29.92 in 1.0 miles ENE 8.1 mph - N/A   Overcast
1:53 AM 36.0°F 35.1°F 97% 29.91 in 1.0 miles ENE 8.1 mph - N/A   Overcast
2:53 AM 36.0°F 35.1°F 97% 29.90 in 1.0 miles ENE 6.9 mph - N/A   Overcast
3:53 AM 36.0°F 35.1°F 97% 29.88 in 1.0 miles ENE 6.9 mph - N/A   Overcast
4:53 AM 35.1°F 34.0°F 96% 29.88 in 7.0 miles NE 5.8 mph - N/A   Mostly Cloudy
5:53 AM 36.0°F 35.1°F 97% 29.86 in 7.0 miles ENE 6.9 mph - N/A   Overcast
6:53 AM 36.0°F 35.1°F 97% 29.83 in 10.0 miles ENE 6.9 mph - N/A   Mostly Cloudy
7:53 AM 37.0°F 35.1°F 93% 29.83 in 10.0 miles ENE 8.1 mph - N/A   Overcast
8:53 AM 39.0°F 37.0°F 93% 29.81 in 9.0 miles ENE 5.8 mph - 0.00 in Rain Light Rain
9:53 AM 39.9°F 37.0°F 89% 29.79 in 10.0 miles ENE 8.1 mph - 0.00 in   Overcast
10:53 AM 42.1°F 37.9°F 85% 29.75 in 10.0 miles East 5.8 mph - N/A   Mostly Cloudy
11:53 AM 45.0°F 39.0°F 80% 29.71 in 10.0 miles East 4.6 mph - N/A   Mostly Cloudy
12:53 PM 48.9°F 41.0°F 74% 29.67 in 10.0 miles East 5.8 mph - N/A   Mostly Cloudy
1:53 PM 46.9°F 39.9°F 77% 29.64 in 10.0 miles ENE 5.8 mph - N/A   Overcast
2:53 PM 46.9°F 39.9°F 77% 29.63 in 9.0 miles ESE 3.5 mph - 0.00 in Rain Light Rain
3:53 PM 46.0°F 43.0°F 89% 29.63 in 10.0 miles East 4.6 mph - 0.04 in Rain Light Rain
4:53 PM 44.1°F 42.1°F 93% 29.62 in 10.0 miles Calm Calm - 0.00 in   Overcast
5:53 PM 45.0°F 42.1°F 90% 29.60 in 10.0 miles ESE 5.8 mph - 0.00 in   Overcast
6:53 PM 46.0°F 43.0°F 89% 29.59 in 10.0 miles SE 3.5 mph - 0.01 in Rain Light Rain
7:53 PM 46.9°F 43.0°F 86% 29.57 in 10.0 miles SE 6.9 mph - 0.02 in Rain Light Rain
8:53 PM 46.9°F 44.1°F 90% 29.57 in 7.0 miles SSW 26.5 mph 32.2 mph 0.05 in Rain Light Rain
9:27 PM 44.6°F 42.8°F 93% 29.57 in 9.0 miles SW 25.3 mph 29.9 mph 0.02 in Rain Light Rain
9:53 PM 41.0°F 39.9°F 96% 29.62 in 5.0 miles SW 27.6 mph 32.2 mph 0.03 in Rain Light Rain
10:53 PM 39.9°F 37.9°F 93% 29.66 in 9.0 miles SW 23.0 mph - 0.02 in Rain Light Rain
11:53 PM 37.9°F 36.0°F 93% 29.71 in 10.0 miles SSW 20.7 mph 31.1 mph 0.00 in Rain Light Rain
Moon Phase
Nov. 17 Nov. 20 Nov. 28 Dec. 06 Dec. 13
Sunrise:06:59 AM (PST) Moon Rise:10:47 AM (PST)
Sunset:04:10 PM (PST) Moon Set:08:27 PM (PST)

Copyright © 2014 The Weather Underground, Inc.